Torna al catalogo

STARLINK-4663

AttivoComunicazioniVLEO
NORAD 53724·PAYLOAD·🇺🇸 United States

Lanciato Sep 5, 2022 da Cape Canaveral Space Force Station

Loading…

Prossimi Passaggi (prossime 24 ore)

TLE

AggiornatoSource: CelesTrak SupGP

Epoca: Sep 14, 2026, 21:52 UTC

1 53724C 22107AA  26257.91159722 -.00003633  00000+0 -10398-3 0  2578
2 53724  53.1570 110.3658 0001294  83.5125 311.3652 15.35390388    15

Traccia STARLINK-4663 in tempo reale con AllMySat

Download on the App Store